Weather History for KGMU - January, 2013

Change the Weather History Date:

Tuesday, January 8, 2013

  Actual Average Record
Temperature  
Mean Temperature 44 °F -  
Max Temperature 52 °F 51 °F 70 °F (2005)
Min Temperature 35 °F 34 °F 10 °F (2015)
Degree Days  
Heating Degree Days 22    
Moisture  
Dew Point 33 °F    
Average Humidity 63    
Maximum Humidity 76    
Minimum Humidity 52    
Precipitation  
Precipitation 0.00 in - - ()
Sea Level Pressure  
Sea Level Pressure 30.40 in    
Wind  
Wind Speed 4 mph (NE)    
Max Wind Speed 9 mph    
Max Gust Speed -    
Visibility 10 miles    
Events      
Averages and records for this station are not official NWS values.
T = Trace of Precipitation, MM = Missing Value Source: NWS Daily Summary

Daily Weather History Graph

Daily Weather History Graph

Search for Another Location

Airport or City:

Trip Planner

Search our weather history database for the weather conditions in past years. The results will help you decide how hot, cold, wet, or windy it might be!

Date:

Astronomy

Jan. 08, 2013 Rise Set
Actual Time 7:37 AM EST 5:35 PM EST
Civil Twilight 7:09 AM EST 6:02 PM EST
Nautical Twilight 6:38 AM EST 6:34 PM EST
Astronomical Twilight 6:07 AM EST 7:04 PM EST
Moon 4:09 AM EST (1/8) 2:35 PM EST (1/8)
Length of Visible Light 10h 53m
Length of Day
9h 57m
Waning Crescent, 14% of the Moon is Illuminated
Jan 8
Waning Crescent
Jan 11
New
Jan 18
First Quarter
Jan 26
Full
Feb 3
Last Quarter

Hourly Weather History & Observations

Time (EST) Temp. Windchill Dew Point Humidity Pressure Visibility Wind Dir Wind Speed Gust Speed Precip Events Conditions
12:53 AM 39.0 °F 35.7 °F 28.0 °F 65% 30.39 in 10.0 mi ENE 4.6 mph - N/A   Clear
1:53 AM 36.0 °F 33.3 °F 27.0 °F 70% 30.39 in 10.0 mi NE 3.5 mph - N/A   Clear
2:53 AM 36.0 °F 32.1 °F 28.0 °F 73% 30.39 in 10.0 mi North 4.6 mph - N/A   Clear
3:53 AM 35.1 °F 30.1 °F 27.0 °F 72% 30.38 in 10.0 mi North 5.8 mph - N/A   Clear
4:53 AM 35.1 °F - 27.0 °F 72% 30.38 in 10.0 mi Calm Calm - N/A   Clear
5:53 AM 36.0 °F 31.1 °F 28.0 °F 73% 30.40 in 10.0 mi North 5.8 mph - N/A   Clear
6:53 AM 35.1 °F 27.9 °F 28.0 °F 76% 30.40 in 10.0 mi NNE 9.2 mph - N/A   Partly Cloudy
7:53 AM 36.0 °F 29.6 °F 28.0 °F 73% 30.41 in 10.0 mi NNE 8.1 mph - N/A   Mostly Cloudy
8:53 AM 37.9 °F 32.1 °F 28.9 °F 70% 30.44 in 10.0 mi NNE 8.1 mph - N/A   Mostly Cloudy
9:53 AM 43.0 °F 38.8 °F 30.0 °F 60% 30.45 in 10.0 mi NE 6.9 mph - N/A   Mostly Cloudy
10:53 AM 45.0 °F 41.2 °F 30.9 °F 58% 30.46 in 10.0 mi NE 6.9 mph - N/A   Overcast
11:41 AM 46.4 °F 43.5 °F 30.2 °F 53% 30.44 in 10.0 mi East 5.8 mph - N/A   Overcast
11:53 AM 46.0 °F 43.9 °F 30.9 °F 56% 30.45 in 10.0 mi East 4.6 mph - N/A   Overcast
12:53 PM 48.0 °F - 32.0 °F 54% 30.41 in 10.0 mi East 3.5 mph - N/A   Overcast
1:53 PM 50.0 °F - 33.1 °F 52% 30.39 in 10.0 mi North 3.5 mph - N/A   Overcast
2:53 PM 51.1 °F - 35.1 °F 54% 30.37 in 10.0 mi ENE 3.5 mph - N/A   Overcast
3:31 PM 51.8 °F - 35.6 °F 54% 30.36 in 10.0 mi Calm Calm - N/A   Mostly Cloudy
3:53 PM 52.0 °F - 36.0 °F 54% 30.37 in 10.0 mi Calm Calm - N/A   Partly Cloudy
4:10 PM 51.8 °F - 35.6 °F 54% 30.36 in 10.0 mi Calm Calm - N/A   Mostly Cloudy
4:25 PM 51.8 °F - 35.6 °F 54% 30.36 in 10.0 mi NE 3.5 mph - N/A   Overcast
4:53 PM 52.0 °F - 37.0 °F 57% 30.37 in 10.0 mi NE 3.5 mph - N/A   Overcast
5:11 PM 51.8 °F - 37.4 °F 58% 30.36 in 10.0 mi NNE 3.5 mph - N/A   Overcast
5:53 PM 51.1 °F - 37.9 °F 61% 30.38 in 10.0 mi East 3.5 mph - N/A   Overcast
6:29 PM 50.0 °F - 37.4 °F 62% 30.36 in 10.0 mi East 5.8 mph - N/A   Overcast
6:53 PM 48.9 °F - 37.0 °F 64% 30.38 in 10.0 mi ENE 5.8 mph - N/A   Scattered Clouds
7:53 PM 48.9 °F - 37.0 °F 64% 30.39 in 10.0 mi NNE 5.8 mph - N/A   Mostly Cloudy
8:53 PM 48.9 °F - 37.9 °F 66% 30.40 in 10.0 mi NE 3.5 mph - N/A   Overcast
9:53 PM 50.0 °F - 37.0 °F 61% 30.40 in 10.0 mi ENE 3.5 mph - N/A   Overcast
10:06 PM 48.2 °F - 37.4 °F 66% 30.40 in 10.0 mi ENE 4.6 mph - N/A   Overcast
10:39 PM 48.2 °F - 37.4 °F 66% 30.40 in 10.0 mi Calm Calm - N/A   Overcast
10:53 PM 48.9 °F - 37.0 °F 64% 30.40 in 10.0 mi North 3.5 mph - N/A   Overcast
11:53 PM 48.9 °F - 37.9 °F 66% 30.40 in 10.0 mi North 6.9 mph - N/A   Overcast